Overview Statistics Trail Chart Weather Telemetry Raw packets
 

This is the latest recevied weather packets stored in our database for station/object N9BID. If no packets are shown the sender has not sent any weather packets the latest 10 day(s).

<< 1 2 3 4 5 6 >>
Time Temp. Humidity Pressure Rain* Wind** Luminosity Snow
1788564256 26.11° C 94% 1012.9 hPa 0 mm - 48 W/m² -
1788563953 26.11° C 94% 1013.2 hPa 0 mm - 47 W/m² -
1788563647 26.11° C 94% 1012.9 hPa 0 mm - 59 W/m² -
1788563342 26.11° C 94% 1012.5 hPa 0 mm - 58 W/m² -
1788563041 26.11° C 93% 1012.2 hPa 0 mm - 59 W/m² -
1788562736 26.67° C 93% 1012.6 hPa 0 mm - 59 W/m² -
1788562433 26.67° C 92% 1012.7 hPa 0 mm - 61 W/m² -
1788562128 26.67° C 92% 1012.5 hPa 0 mm - 36 W/m² -
1788561824 27.22° C 91% 1012.2 hPa 0 mm - 81 W/m² -
1788561523 27.22° C 91% 1011.6 hPa 0 mm - 142 W/m² -
1788561222 27.78° C 91% 1011.8 hPa 0 mm - 88 W/m² -
1788560919 27.78° C 91% 1011.9 hPa 0 mm - 97 W/m² -
1788560619 27.78° C 90% 1012.1 hPa 0 mm - 223 W/m² -
1788560318 27.22° C 92% 1011.8 hPa 0 mm - 109 W/m² -
1788560013 27.22° C 91% 1011.8 hPa 0 mm - 50 W/m² -
1788559709 27.78° C 91% 1011.6 hPa 0 mm - 44 W/m² -
1788559408 28.33° C 89% 1011.7 hPa 0 mm - 110 W/m² -
1788559103 29.44° C 86% 1011.5 hPa 0 mm - 38 W/m² -
1788558799 30° C 84% 1011.5 hPa 0 mm - 44 W/m² -
1788558495 30° C 84% 1011.5 hPa 0 mm - 65 W/m² -
1788558190 30° C 83% 1011.3 hPa 0 mm - 246 W/m² -
1788557888 30° C 85% 1011.5 hPa 0 mm - 178 W/m² -
1788557584 30° C 83% 1011.7 hPa 0 mm - 328 W/m² -
1788557279 29.44° C 85% 1011.5 hPa 0 mm - 301 W/m² -
1788556980 29.44° C 84% 1011.4 hPa 0 mm - 107 W/m² -

* Rain latest hour (hover to see other rain measurements)
** Current wind speed in m/s (hover to see current wind gust speed)